Regional Weather Roundup
Issued by NWS

Home | Current Version | Previous Version | Graphics & Text | Print | Product List | Glossary On
Versions: 1 2 3 4 5 6 7 8 9 10 11 12 13 14 15 16 17 18 19 20 21 22 23 24 25 26 27 28 29 30 31 32 33 34 35 36 37 38 39 40 41 42 43 44 45 46 47 48 49 50
000
ASUS43 KMPX 190401
RWRMN
WEATHER ROUNDUP FOR MINNESOTA
NATIONAL WEATHER SERVICE TWIN CITIES/CHANHASSEN MN
1000 PM CST THU DEC 18 2014


NOTE: "FAIR" INDICATES FEW OR NO CLOUDS BELOW 12,000 FEET WITH NO
SIGNIFICANT WEATHER AND/OR OBSTRUCTIONS TO VISIBILITY. N/A MEANS
CURRENT SKY AND/OR WEATHER CONDITIONS ARE NOT AVAILABLE.

MNZ060>063-068>070-190500-
   Twin Cities Metro

CITY           SKY/WX    TMP DP  RH WIND       PRES   REMARKS
TWIN CITIES    CLOUDY    21  15  78 S6        30.27S WCI  13
ST PAUL        CLOUDY    22  16  78 S3        30.29R
CRYSTAL        CLOUDY    21  15  78 S6        30.26R WCI  13
BLAINE         FLURRIES  23  18  80 SE5       30.25S WCI  17
LAKEVILLE      CLOUDY    19  16  86 CALM      30.26R
EDEN PRAIRIE   CLOUDY    21  15  78 SE5       30.25S WCI  15
SOUTH ST PAUL  CLOUDY    22  17  79 CALM      30.27S
LAKE ELMO      CLOUDY    23  19  86 CALM      30.27S
$$
MNZ001>005-007-008-013>017-022>024-027-028-190500-
   Northwest Minnesota

CITY           SKY/WX    TMP DP  RH WIND       PRES   REMARKS
BEMIDJI        CLOUDY    18  15  88 SE8       30.17S WCI   7
HALLOCK        CLOUDY    21  18  86 S13       30.15R WCI   9
ROSEAU         CLOUDY    19  14  79 S10       30.16S WCI   8
WARROAD        CLOUDY    16  10  79 SE6       30.17F WCI   7
THIEF RVR FALL CLOUDY    21  18  86 S9        30.15S WCI  11
CROOKSTON      CLOUDY    21  18  86 S12       30.17S WCI   9
FOSSTON        CLOUDY    18  14  86 S6        30.16S WCI   9
DETROIT LAKES  MOCLDY    21  18  86 SE10      30.17S WCI  10
MOORHEAD       CLOUDY    21  19  93 S15       30.18S WCI   8
PARK RAPIDS    CLOUDY    19  14  81 SE9       30.17S WCI   8
MAHNOMEN       CLOUDY    19  15  82 S7        30.16S WCI  10
$$
MNZ006-009>011-018-025>026-190500-
   North Central Minnesota

CITY           SKY/WX    TMP DP  RH WIND       PRES   REMARKS
BAUDETTE       CLOUDY    19  14  81 S8        30.18S WCI   9
FLAG ISLAND    CLOUDY    18  14  86 S12       30.17S WCI   5
INTL FALLS     CLOUDY    20  17  88 SE5       30.19F WCI  13
WASKISH        CLOUDY    19  16  86 CALM      30.19S
BIG FORK       CLOUDY    21  18  86 S9        30.19F WCI  11
LONGVILLE      CLOUDY    19  18  93 S7        30.20S WCI  10
GRAND RAPIDS   CLOUDY    19  18  93 S9        30.19F WCI   9
CRANE LAKE     CLOUDY    19  18  93 CALM      30.24S
ORR            CLOUDY    19  18  93 CALM      30.18S
COOK           CLOUDY    21  19  93 CALM      30.21S
WALKER         CLOUDY    17  14  88 SE5       30.19S WCI  10
$$
MNZ012-019>021-037-190500-
   Northeast Minnesota

CITY           SKY/WX    TMP DP  RH WIND       PRES   REMARKS
DULUTH         CLOUDY    23  18  81 S6        30.21S WCI  16
ELY            CLOUDY    21  19  93 CALM      30.21R
HIBBING        CLOUDY    23  16  74 S3        30.20F
EVELETH        CLOUDY    23  19  86 S7        30.22S WCI  15
DULUTH HARBOR  CLOUDY    27  21  80 CALM      30.28S
TWO HARBORS    CLOUDY    27  21  80 SE2       30.22S
SILVER BAY     CLOUDY    25  19  80 S6        30.22S WCI  18
GRAND MARAIS     N/A     19  13  77 NW6       30.29S WCI  11
G MARAIS ARPRT PTCLDY     3   0  85 N5        30.21S WCI  -6
$$
MNZ029>031-032-039>041-046>048-054>057-064-190500-
   West Central Minnesota

CITY           SKY/WX    TMP DP  RH WIND       PRES   REMARKS
FERGUS FALLS   CLOUDY    19  14  79 S13       30.21S WCI   7
WHEATON        CLOUDY    19  16  86 SE10      30.20S WCI   8
MORRIS         CLEAR     21  18  86 SE10      30.18S WCI  10
ALEXANDRIA     CLOUDY    19  14  81 SE13      30.19S WCI   6
ELBOW LAKE     CLOUDY    19  15  86 SE12      30.18S WCI   6
WADENA         CLOUDY    18  14  86 NW7       30.19R WCI   8
GLENWOOD       CLOUDY    19  16  86 SE8       30.20R WCI   9
APPLETON       CLOUDY    21  19  93 SE3       30.20S
BENSON         CLOUDY    21  18  86 S7        30.20F WCI  13
ORTONVILLE     MOCLDY    21  18  86 SE6       30.18S WCI  14
MADISON        PTCLDY    27  25  93 SE5       30.19F WCI  21
WILLMAR        CLOUDY    21  18  86 SE8       30.22S WCI  12
$$
MNZ033>034-036-042>043-049>051-058-059-190500-
   Central Minnesota

CITY           SKY/WX    TMP DP  RH WIND       PRES   REMARKS
ST CLOUD       CLOUDY    21  14  74 S6        30.24R WCI  13
SAUK CENTRE    CLOUDY    19  15  86 SE8       30.21S WCI   8
PAYNESVILLE    CLOUDY    17  15  90 E5        30.23R WCI  10
AITKIN         CLOUDY    21  16  79 S5        30.21S WCI  15
PINE RIVER     CLOUDY    18  16  93 S5        30.24R WCI  11
BRAINERD       CLOUDY    18  14  84 S6        30.23R WCI  10
STAPLES        CLOUDY    18  14  86 S6        30.20S WCI   9
LONG PRAIRIE   CLOUDY    19  14  79 SE9       30.21R WCI   9
LITTLE FALLS   CLOUDY    19  14  79 SE5       30.23S WCI  13
LITCHFIELD     CLOUDY    19  18  93 SE5       30.23S WCI  13
BUFFALO        CLOUDY    21  16  81 SE5       30.26S WCI  14
MAPLE LAKE     CLOUDY    21  18  88 SE3       30.25S
$$
MNZ037-044-045-052-053-190500-
   East Central Minnesota

CITY           SKY/WX    TMP DP  RH WIND       PRES   REMARKS
PRINCETON      CLOUDY    21  18  86 CALM      30.25R
MORA           CLOUDY    19  16  86 CALM      30.26S
CAMBRIDGE      FLURRIES  23  16  74 CALM      30.24S
RUSH CITY      CLOUDY    22  19  87 CALM      30.26S
MOOSE LAKE     CLOUDY    21  19  93 S3        30.22S
HINCKLEY       CLOUDY    23  21  93 CALM      30.25S
CLOQUET        CLOUDY    21  18  86 S3        30.22S
MCGREGOR       CLOUDY    21  19  93 S5        30.23S WCI  15
$$
MNZ071>073-080-081-089-090-097-098-190500-
   Southwest Minnesota

CITY           SKY/WX    TMP DP  RH WIND       PRES   REMARKS
MONTEVIDEO     CLOUDY    21  19  93 S7        30.21F WCI  13
GRANITE FALLS  CLOUDY    22  19  88 SE7       30.22S WCI  14
CANBY          CLOUDY    24  23  96 SE6       30.19S WCI  17
MARSHALL       CLOUDY    25  19  80 SE5       30.19S WCI  19
REDWOOD FALLS  CLOUDY    23  19  85 SE8       30.22F WCI  14
OLIVIA         CLOUDY    23  19  86 SE8       30.21F WCI  14
PIPESTONE      CLOUDY    25  25 100 S3        30.15S FOG
WINDOM         CLOUDY    25  21  86 SE5       30.20R WCI  19
WORTHINGTON    CLOUDY    25  21  86 S8        30.19R WCI  16
JACKSON        CLOUDY    27  21  80 SE7       30.20S WCI  19
TRACY          CLOUDY    26  24  91 S3        30.18F
SLAYTON        CLOUDY    25  24  96 CALM      30.17F
$$
MNZ065>067-074>077-082>085-091>093-190500-
   South Central Minnesota

CITY           SKY/WX    TMP DP  RH WIND       PRES   REMARKS
MANKATO        CLOUDY    21  16  79 SE6       30.24S WCI  14
NEW ULM        CLOUDY    21  19  93 SE5       30.23S WCI  15
ST JAMES       CLOUDY    25  21  86 SE6       30.24S WCI  18
FAIRMONT       CLOUDY    25  18  74 SE8       30.22S WCI  16
GLENCOE        CLOUDY    22  19  87 SE5       30.24S WCI  15
FARIBAULT      CLOUDY    21  16  79 SE3       30.25S
OWATONNA       CLOUDY    21  16  79 SE6       30.24S WCI  14
WASECA         CLOUDY    23  19  86 SE5       30.25S WCI  17
ALBERT LEA     CLOUDY    23  19  86 SE5       30.23S WCI  17
$$
MNZ078>079-086>088-094>096-190500-
   Southeast Minnesota

CITY           SKY/WX    TMP DP  RH WIND       PRES   REMARKS
ROCHESTER      CLOUDY    20  15  81 S3        30.25R
RED WING       CLOUDY    25  18  74 CALM      30.27S
STANTON        CLOUDY    22  16  76 SE5       30.25S WCI  16
DODGE CENTER   CLOUDY    19  18  93 SE6       30.23S WCI  11
WINONA         CLOUDY    27  21  80 CALM      30.29S
AUSTIN         CLOUDY    21  18  86 CALM      30.24R
PRESTON        CLOUDY    21  16  81 CALM      30.25S
$$
ABBREVIATIONS USED IN REMARKS
   TC - TEMPERATURES IN CELSIUS
  WCI - WIND CHILL INDEX
   HX - HEAT INDEX
  VSB - VISIBILITY
$$



USA.gov is the U.S. government's official web portal to all federal, state and local government web resources and services.